| time (UTC) | temp F | wind direction | speed knots | gust knots | rain 1hr in | rain 24hr in | rain mn in | humidity % | barometer mb |
| 20260903093123 | 56 | 186 | 0.0 | 0.0 | 0.00 | 0.00 | 0.28 | 93 | 1008.4 |
| 20260903092122 | 56 | 186 | 0.0 | 0.0 | 0.00 | 0.00 | 0.28 | 93 | 1008.4 |
| 20260903090120 | 56 | 186 | 0.0 | 0.0 | 0.00 | 0.00 | 0.28 | 93 | 1008.6 |
| 20260903085119 | 56 | 186 | 0.0 | 0.0 | 0.00 | 0.00 | 0.28 | 93 | 1008.6 |
| 20260903084119 | 56 | 186 | 0.0 | 0.0 | 0.00 | 0.00 | 0.28 | 93 | 1008.7 |
| 20260903083117 | 56 | 186 | 0.0 | 0.0 | 0.00 | 0.00 | 0.27 | 92 | 1008.7 |
| 20260903081116 | 56 | 185 | 0.0 | 0.0 | 0.00 | 0.00 | 0.27 | 92 | 1008.7 |
| 20260903080115 | 56 | 198 | 0.0 | 0.0 | 0.00 | 0.00 | 0.27 | 92 | 1008.8 |
| 20260903075113 | 56 | 198 | 0.0 | 0.0 | 0.00 | 0.00 | 0.27 | 92 | 1008.8 |
| 20260903074112 | 56 | 195 | 0.9 | 0.0 | 0.00 | 0.00 | 0.27 | 92 | 1008.8 |
| 20260903073112 | 56 | 200 | 0.0 | 0.0 | 0.00 | 0.00 | 0.26 | 92 | 1008.8 |
| 20260903072111 | 57 | 209 | 0.0 | 0.0 | 0.00 | 0.00 | 0.26 | 92 | 1008.7 |
| 20260903071109 | 57 | 208 | 0.0 | 0.0 | 0.00 | 0.00 | 0.26 | 91 | 1008.7 |
| 20260903070109 | 57 | 199 | 3.5 | 0.0 | 0.00 | 0.00 | 0.26 | 91 | 1008.6 |
| 20260903064106 | 57 | 229 | 1.7 | 0.0 | 0.00 | 0.00 | 0.26 | 91 | 1008.6 |
| 20260903063105 | 57 | 244 | 5.2 | 0.0 | 0.00 | 0.00 | 0.26 | 92 | 1008.7 |
| 20260903062104 | 57 | 215 | 0.0 | 0.0 | 0.00 | 0.00 | 0.26 | 92 | 1008.6 |
| 20260903061103 | 57 | 240 | 0.0 | 0.0 | 0.00 | 0.00 | 0.26 | 92 | 1008.7 |
| 20260903055101 | 57 | 211 | 0.0 | 0.0 | 0.00 | 0.00 | 0.26 | 91 | 1008.6 |
| 20260903054101 | 57 | 230 | 0.0 | 0.0 | 0.00 | 0.00 | 0.26 | 92 | 1008.5 |
| 20260903053059 | 57 | 225 | 0.0 | 0.0 | 0.00 | 0.00 | 0.26 | 92 | 1008.6 |
| 20260903052058 | 57 | 225 | 0.0 | 0.0 | 0.00 | 0.00 | 0.26 | 92 | 1008.7 |
| 20260903051057 | 57 | 223 | 0.0 | 0.0 | 0.00 | 0.00 | 0.26 | 92 | 1008.7 |
| 20260903050056 | 57 | 223 | 0.0 | 0.0 | 0.00 | 0.00 | 0.26 | 92 | 1008.5 |
| 20260903045055 | 57 | 197 | 0.0 | 0.0 | 0.00 | 0.00 | 0.26 | 92 | 1008.5 |
| 20260903044054 | 57 | 198 | 0.0 | 0.0 | 0.00 | 0.00 | 0.26 | 92 | 1008.4 |
| 20260903042052 | 58 | 203 | 0.0 | 0.0 | 0.00 | 0.00 | 0.26 | 92 | 1008.3 |
| 20260903041051 | 58 | 200 | 0.0 | 0.0 | 0.00 | 0.00 | 0.26 | 92 | 1008.2 |
| 20260903040050 | 58 | 217 | 0.0 | 0.0 | 0.00 | 0.00 | 0.26 | 92 | 1008.0 |
| 20260903035049 | 58 | 217 | 0.0 | 0.0 | 0.00 | 0.00 | 0.26 | 92 | 1007.9 |
| 20260903033047 | 59 | 215 | 1.7 | 0.0 | 0.00 | 0.00 | 0.26 | 92 | 1007.6 |
| 20260903032046 | 59 | 196 | 0.0 | 0.0 | 0.00 | 0.00 | 0.26 | 92 | 1007.5 |
| 20260903030044 | 60 | 202 | 0.0 | 0.0 | 0.00 | 0.00 | 0.26 | 92 | 1007.4 |
| 20260903025043 | 60 | 199 | 0.0 | 0.0 | 0.00 | 0.00 | 0.26 | 92 | 1007.2 |
| 20260903024042 | 60 | 188 | 0.0 | 0.0 | 0.00 | 0.00 | 0.26 | 92 | 1007.1 |
| 20260903023041 | 60 | 186 | 0.0 | 0.0 | 0.00 | 0.00 | 0.26 | 92 | 1007.0 |
| 20260903022040 | 60 | 194 | 0.0 | 0.0 | 0.00 | 0.00 | 0.26 | 92 | 1007.1 |
| 20260903021039 | 60 | 194 | 0.0 | 0.0 | 0.00 | 0.00 | 0.26 | 92 | 1006.9 |
| 20260903014036 | 60 | 196 | 0.0 | 0.0 | 0.00 | 0.00 | 0.26 | 92 | 1006.6 |
| 20260903013035 | 60 | 196 | 0.0 | 0.0 | 0.00 | 0.00 | 0.25 | 92 | 1006.6 |
| 20260903012034 | 60 | 198 | 0.0 | 0.0 | 0.00 | 0.00 | 0.25 | 91 | 1006.5 |
| 20260903011033 | 60 | 198 | 0.0 | 0.0 | 0.00 | 0.00 | 0.25 | 91 | 1006.5 |
| 20260903005031 | 61 | 236 | 0.0 | 0.0 | 0.00 | 0.00 | 0.25 | 92 | 1006.3 |
| 20260903004030 | 61 | 212 | 0.0 | 0.0 | 0.00 | 0.00 | 0.25 | 91 | 1006.2 |
| 20260903003028 | 61 | 224 | 0.0 | 0.0 | 0.00 | 0.00 | 0.24 | 92 | 1006.0 |
| 20260903002028 | 61 | 232 | 0.9 | 0.0 | 0.00 | 0.00 | 0.24 | 92 | 1006.1 |
| 20260903001026 | 60 | 239 | 0.0 | 0.0 | 0.00 | 0.00 | 0.24 | 92 | 1006.1 |
| 20260903000025 | 60 | 213 | 0.0 | 0.0 | 0.00 | 0.00 | 0.23 | 92 | 1006.0 |
| 20260902235025 | 60 | 211 | 0.0 | 0.0 | 0.00 | 0.00 | 0.23 | 92 | 1005.9 |
| 20260902234023 | 60 | 259 | 0.0 | 0.0 | 0.00 | 0.00 | 0.23 | 93 | 1006.0 |
| 20260902233022 | 60 | 257 | 4.3 | 0.0 | 0.00 | 0.00 | 0.23 | 92 | 1005.8 |
| 20260902232021 | 60 | 253 | 5.2 | 0.0 | 0.00 | 0.00 | 0.23 | 92 | 1005.9 |
| 20260902231020 | 60 | 253 | 0.0 | 0.0 | 0.00 | 0.00 | 0.23 | 92 | 1005.8 |
| 20260902230020 | 60 | 234 | 0.0 | 0.0 | 0.00 | 0.00 | 0.22 | 92 | 1005.7 |
| 20260902225018 | 60 | 223 | 2.6 | 0.0 | 0.00 | 0.00 | 0.21 | 91 | 1005.6 |
| 20260902223017 | 60 | 221 | 0.9 | 0.0 | 0.00 | 0.00 | 0.21 | 91 | 1005.6 |
| 20260902222016 | 60 | 242 | 0.0 | 0.0 | 0.00 | 0.00 | 0.21 | 91 | 1005.4 |
| 20260902221015 | 60 | 229 | 2.6 | 0.0 | 0.00 | 0.00 | 0.21 | 91 | 1005.4 |
| 20260902220014 | 60 | 213 | 0.0 | 0.0 | 0.00 | 0.00 | 0.21 | 92 | 1005.5 |
| 20260902215012 | 60 | 229 | 0.0 | 0.0 | 0.00 | 0.00 | 0.21 | 93 | 1005.3 |
| 20260902214011 | 60 | 229 | 1.7 | 0.0 | 0.00 | 0.00 | 0.21 | 92 | 1005.3 |
| 20260902212010 | 60 | 174 | 0.0 | 0.0 | 0.00 | 0.00 | 0.20 | 92 | 1005.4 |
| 20260902211009 | 59 | 186 | 0.0 | 0.0 | 0.00 | 0.00 | 0.20 | 92 | 1005.5 |
| 20260902210007 | 60 | 174 | 5.2 | 0.0 | 0.00 | 0.00 | 0.20 | 92 | 1005.4 |
| 20260902205006 | 60 | 193 | 0.0 | 0.0 | 0.00 | 0.00 | 0.20 | 92 | 1005.3 |
| 20260902204006 | 60 | 192 | 0.0 | 0.0 | 0.00 | 0.00 | 0.20 | 92 | 1005.1 |
| 20260902202003 | 60 | 167 | 0.0 | 0.0 | 0.00 | 0.00 | 0.20 | 92 | 1005.0 |
| 20260902201003 | 60 | 187 | 2.6 | 0.0 | 0.00 | 0.00 | 0.20 | 92 | 1005.0 |
| 20260902200001 | 60 | 183 | 0.0 | 0.0 | 0.00 | 0.00 | 0.18 | 92 | 1005.1 |
| 20260902195000 | 60 | 183 | 0.0 | 0.0 | 0.00 | 0.00 | 0.17 | 92 | 1005.3 |
| 20260902193959 | 60 | 191 | 0.0 | 0.0 | 0.00 | 0.00 | 0.15 | 91 | 1005.4 |
| 20260902192959 | 60 | 170 | 0.0 | 0.0 | 0.00 | 0.00 | 0.12 | 91 | 1005.5 |
| 20260902191957 | 60 | 169 | 0.0 | 0.0 | 0.00 | 0.00 | 0.11 | 90 | 1005.6 |
| 20260902190956 | 60 | 169 | 0.0 | 0.0 | 0.00 | 0.00 | 0.09 | 90 | 1005.5 |
| 20260902185955 | 60 | 169 | 0.0 | 0.0 | 0.00 | 0.00 | 0.08 | 90 | 1005.4 |
| 20260902184954 | 60 | 180 | 0.0 | 0.0 | 0.00 | 0.00 | 0.07 | 90 | 1005.5 |
| 20260902183953 | 60 | 178 | 0.0 | 0.0 | 0.00 | 0.00 | 0.06 | 89 | 1005.6 |
| 20260902182952 | 60 | 178 | 0.0 | 0.0 | 0.00 | 0.00 | 0.06 | 88 | 1005.9 |
| 20260902181951 | 60 | 215 | 0.0 | 0.0 | 0.00 | 0.00 | 0.05 | 88 | 1006.1 |
| 20260902174948 | 62 | 258 | 0.0 | 0.0 | 0.00 | 0.00 | 0.03 | 83 | 1006.3 |
| 20260902173947 | 63 | 258 | 0.0 | 0.0 | 0.00 | 0.00 | 0.02 | 80 | 1006.0 |
| 20260902172947 | 64 | 197 | 0.0 | 0.0 | 0.00 | 0.00 | 0.00 | 78 | 1006.0 |
| 20260902171945 | 64 | 197 | 0.0 | 0.0 | 0.00 | 0.00 | 0.00 | 76 | 1005.7 |
| 20260902170944 | 64 | 197 | 0.0 | 0.0 | 0.00 | 0.00 | 0.00 | 72 | 1005.6 |
| 20260902165943 | 65 | 197 | 0.0 | 0.0 | 0.00 | 0.00 | 0.00 | 71 | 1005.5 |
| 20260902164942 | 65 | 209 | 0.0 | 0.0 | 0.00 | 0.00 | 0.00 | 70 | 1005.5 |
| 20260902163941 | 65 | 209 | 0.0 | 0.0 | 0.00 | 0.00 | 0.00 | 68 | 1005.4 |
| 20260902162940 | 64 | 207 | 0.0 | 0.0 | 0.00 | 0.00 | 0.00 | 69 | 1005.3 |
| 20260902160938 | 64 | 163 | 0.0 | 0.0 | 0.00 | 0.00 | 0.00 | 72 | 1005.4 |
| 20260902155937 | 64 | 163 | 0.0 | 0.0 | 0.00 | 0.00 | 0.00 | 74 | 1005.6 |
| 20260902154936 | 63 | 163 | 0.0 | 0.0 | 0.00 | 0.00 | 0.00 | 74 | 1005.6 |
| 20260902153935 | 63 | 163 | 0.0 | 0.0 | 0.00 | 0.00 | 0.00 | 74 | 1005.7 |
| 20260902152934 | 63 | 161 | 0.0 | 0.0 | 0.00 | 0.00 | 0.00 | 73 | 1005.8 |
| 20260902145931 | 62 | 158 | 0.0 | 0.0 | 0.00 | 0.00 | 0.00 | 74 | 1006.1 |
| 20260902143929 | 62 | 167 | 0.0 | 0.0 | 0.00 | 0.00 | 0.00 | 74 | 1006.3 |
| 20260902142928 | 62 | 167 | 0.0 | 0.0 | 0.00 | 0.00 | 0.00 | 75 | 1006.4 |
| 20260902140926 | 62 | 201 | 0.0 | 0.0 | 0.00 | 0.00 | 0.00 | 74 | 1006.7 |
| 20260902134924 | 62 | 201 | 0.0 | 0.0 | 0.00 | 0.00 | 0.00 | 75 | 1006.9 |
| 20260902133923 | 62 | 201 | 0.0 | 0.0 | 0.00 | 0.00 | 0.00 | 75 | 1007.0 |
| 20260902132922 | 61 | 201 | 0.0 | 0.0 | 0.00 | 0.00 | 0.00 | 75 | 1007.1 |
| 20260902130920 | 61 | 201 | 0.0 | 0.0 | 0.00 | 0.00 | 0.00 | 76 | 1007.4 |
| 20260902124918 | 61 | 201 | 0.0 | 0.0 | 0.00 | 0.00 | 0.00 | 76 | 1007.7 |
| 20260902123917 | 61 | 201 | 0.0 | 0.0 | 0.00 | 0.00 | 0.00 | 76 | 1007.8 |
| 20260902122915 | 61 | 201 | 0.0 | 0.0 | 0.00 | 0.00 | 0.00 | 76 | 1007.9 |
| 20260902121915 | 61 | 201 | 0.0 | 0.0 | 0.00 | 0.00 | 0.00 | 76 | 1008.1 |
| 20260902120913 | 61 | 201 | 0.0 | 0.0 | 0.00 | 0.00 | 0.00 | 76 | 1008.2 |
| 20260902114912 | 61 | 201 | 0.0 | 0.0 | 0.00 | 0.00 | 0.00 | 77 | 1008.5 |
| 20260902111909 | 61 | 201 | 0.0 | 0.0 | 0.00 | 0.00 | 0.00 | 78 | 1008.8 |
| 20260902110907 | 61 | 201 | 0.0 | 0.0 | 0.00 | 0.00 | 0.00 | 77 | 1008.8 |
| 20260902105907 | 61 | 201 | 0.0 | 0.0 | 0.00 | 0.00 | 0.00 | 77 | 1008.8 |
| 20260902104905 | 61 | 201 | 0.0 | 0.0 | 0.00 | 0.00 | 0.00 | 77 | 1009.0 |
| 20260902103904 | 61 | 201 | 0.0 | 0.0 | 0.00 | 0.00 | 0.00 | 77 | 1009.0 |
| 20260902102903 | 61 | 201 | 0.0 | 0.0 | 0.00 | 0.00 | 0.00 | 77 | 1009.0 |
| 20260902101902 | 61 | 201 | 1.7 | 0.0 | 0.00 | 0.00 | 0.00 | 77 | 1009.1 |
| 20260902100901 | 61 | 201 | 0.0 | 0.0 | 0.00 | 0.00 | 0.00 | 77 | 1009.1 |
| 20260902095900 | 61 | 202 | 0.0 | 0.0 | 0.00 | 0.00 | 0.00 | 77 | 1009.2 |
| 20260902094859 | 61 | 189 | 0.0 | 0.0 | 0.00 | 0.00 | 0.00 | 77 | 1009.2 |